Location: Puketoi
(40.5833°S, 176.0167°E)
Time: 14:11:35
(UTC+00:00)

Cosmos 1980 Rocket - Pass Details

Date: 08 February 2023
Orbit: 828 x 850 km, 71.0° (Epoch: 30 March)

Event Time Altitude Azimuth Distance (km) Brightness Sun altitude
Exits shadow 16:31:50 14° 313° (NW) 2,184 3.7 -11.2°
Maximum altitude 16:36:30 48° 242° (WSW) 1,092 2.6 -10.5°
Drops below altitude 10° 16:41:59 10° 167° (SSE) 2,472 5.3 -9.6°
Sets 16:44:32 0° 161° (SSE) 3,410 6.2 -9.1°
